[[{"header":{"parameterUnit":"m.s-1","parameterCategory":1,"la1":30.2991,"la2":30.254,"lo1":-89.0895,"lo2":-89.0444,"dy":0.0017,"dx":0.0017,"nx":28,"ny":28,"refTime":"2025-02-01T03:00:00:Z","depth":0,"parameterNumber":2,"parameterNumberName":"U-component_of_WINDS"},"data":[0,0,0,0,0,0,0,0,0,0,0,0,0,0,0,0,0,0,0,0,0,0,0,0,0,0,0,0,0,0,0,0,0,0,0,0,0,0,0,0,0,0,0,0,0,0,0,0,0,0,0,0,0,0,0,0,0,0,3.5854,3.5855,0,3.5905,3.5905,3.5906,3.5859,3.5857,3.5856,3.5854,3.5905,3.5908,3.5911,0,0,0,0,0,0,0,0,0,0,0,0,0,3.572,3.5722,3.5854,3.5855,3.5856,3.5905,3.5906,3.5906,3.586,3.5857,3.5855,3.5853,3.5904,3.5908,3.5912,0,0,0,0,0,0,0,0,0,0,0,0,0,3.5775,3.5723,3.5854,3.5838,3.5837,3.5905,3.5906,3.5906,3.586,3.5857,3.5854,3.5852,3.5903,3.5908,3.5912,3.5998,0,0,3.5927,3.5929,0,0,0,0,0,0,0,0,3.5772,3.578,3.584,3.584,3.5839,3.5873,3.5877,3.5937,3.5861,3.5851,3.5854,3.585,3.5897,3.5902,3.5918,3.6,3.6002,3.5927,3.593,3.5932,3.5933,0,0,0,0,0,0,0,3.5768,3.5778,3.5874,3.5841,3.584,3.5829,3.5834,3.5888,3.5889,3.5852,3.5849,3.5855,3.5896,3.5913,3.5918,3.6003,3.5927,3.5931,3.5934,3.5936,3.6163,3.6166,0,0,0,0,0,0,3.5766,3.5775,3.5873,3.5876,3.5798,3.5834,3.5839,3.5865,3.5889,3.589,3.5858,3.5853,3.5906,3.5913,3.592,3.6024,3.5932,3.5936,3.5939,3.616,3.6163,3.6167,0,0,0,0,0,0,3.5763,3.5775,3.5871,3.5824,3.5836,3.5839,3.5868,3.5867,3.5884,3.5893,3.5893,3.5875,3.5905,3.5913,3.598,3.6025,3.5938,3.5943,3.6156,3.6161,3.6165,3.6232,0,0,0,0,0,0,3.5759,3.5774,3.5806,3.5825,3.5838,3.5929,3.5871,3.587,3.5893,3.5887,3.5909,3.591,3.5903,3.5973,3.5984,3.603,3.5946,3.6152,3.6158,3.6164,3.6226,3.6239,3.625,0,0,0,0,0,3.5755,3.5822,3.5808,3.582,3.5878,3.5932,3.5939,3.5929,3.5896,3.5929,3.5935,3.5909,3.6019,3.598,3.5993,3.6041,3.6149,3.6156,3.6163,3.6221,3.6236,3.6249,0,0,0,0,0,0,3.5807,3.5824,3.5809,3.5884,3.5907,3.5924,3.5964,3.5946,3.5978,3.5971,3.5958,3.5964,3.6035,3.6044,3.6001,3.6127,3.6078,3.6089,3.6118,3.6133,3.6144,3.6141,3.595,0,0,0,0,0,3.5827,3.5869,3.5882,3.5947,3.5959,3.596,3.5983,3.5974,3.5997,3.6006,3.6017,3.6041,3.6081,3.6107,3.6144,3.6227,3.6233,3.6267,3.6279,3.6288,3.6297,3.6346,3.6362,3.6191,3.6191,3.6191,0,0,3.5869,3.5884,3.5911,3.5958,3.5974,3.6019,3.5968,3.6017,3.605,3.6013,3.6078,3.6087,3.6112,3.6189,3.6223,3.6199,3.6346,3.6297,3.6305,3.6309,3.6355,3.6371,3.6385,3.6196,3.6195,3.6194,0,0,3.5969,3.5983,3.6041,3.606,3.6086,3.6087,3.6101,3.6121,3.6126,3.619,3.6165,3.6205,3.6273,3.6294,3.6313,3.6425,3.6404,3.6437,3.65,3.6547,3.656,3.6572,3.6615,3.663,3.6446,3.6447,3.6447,0,3.6018,3.6084,3.6073,3.6124,3.6147,3.6117,3.6177,3.6195,3.6232,3.6249,3.6222,3.631,3.6324,3.6407,3.6435,3.645,3.6468,3.6435,3.6559,3.6571,3.6582,3.6622,3.6638,3.6451,3.645,3.645,3.6449,0,3.6144,3.619,3.6234,3.6272,3.6299,3.6354,3.6353,3.6383,3.6372,3.6377,3.6444,3.6462,3.6503,3.6522,3.6511,3.6604,3.6589,3.6561,3.6512,3.6603,3.664,3.6656,3.6457,3.6455,3.6454,3.6453,0,0,3.6276,3.631,3.6326,3.6345,3.6373,3.6409,3.6465,3.6506,3.6533,3.656,3.6608,3.6668,3.6643,3.6665,3.6657,3.6699,3.679,3.6666,3.6666,3.669,3.6897,3.6919,3.6937,3.6776,3.6779,3.6781,3.6895,0,3.6379,3.6474,3.6468,3.6558,3.6603,3.6577,3.6625,3.6649,3.6655,3.6695,3.6701,3.6745,3.6708,3.6722,3.6762,3.677,3.6832,3.6762,3.6822,3.6824,3.6817,3.6956,3.6979,3.7085,3.691,3.6912,3.6914,0,3.651,3.6544,3.664,3.6665,3.6683,3.6727,3.6767,3.6804,3.6831,3.6833,3.686,3.6846,3.6904,3.6854,3.6935,3.6888,3.6912,3.6921,3.6925,3.6931,3.6875,3.6967,3.7119,3.7136,3.6937,3.6935,3.6933,0,3.66,3.6669,3.6736,3.6753,3.6783,3.6815,3.6829,3.6854,3.6881,3.6916,3.6933,3.6974,3.6997,3.703,3.7028,3.6992,3.7112,3.7061,3.7116,3.7117,3.7143,3.7141,3.7302,3.7156,3.7156,3.7156,3.7155,0,3.6716,3.6776,3.6777,3.6819,3.6886,3.6879,3.6946,3.6957,3.6981,3.7025,3.7005,3.7047,3.7042,3.7085,3.7084,3.7153,3.7163,3.7167,3.7167,3.717,3.717,3.7186,3.7179,3.716,3.7159,3.7158,3.7157,0,3.6827,3.683,3.6902,3.6926,3.6934,3.6983,3.7004,3.7045,3.705,3.7107,3.712,3.7129,3.7179,3.7181,3.7237,3.7237,3.7322,3.7312,3.7313,3.7312,3.7368,3.7364,3.7546,3.7571,3.7407,3.7409,3.741,0,3.6901,3.6947,3.6977,3.7006,3.7023,3.7068,3.7096,3.7092,3.7122,3.7159,3.7196,3.7244,3.7283,3.7364,3.7377,3.7421,3.7413,3.7474,3.742,3.7423,3.7417,3.7415,3.7421,3.7485,3.7487,3.7488,3.749,0,3.7034,3.7034,3.7074,3.7117,3.7152,3.7185,3.7215,3.724,3.724,3.7275,3.7327,3.7357,3.7417,3.7466,3.751,3.7526,3.7509,3.7507,3.7523,3.7527,3.7527,3.753,3.7344,3.7503,3.7501,3.75,3.75,3.7499,3.713,3.7171,3.72,3.7247,3.727,3.73,3.734,3.7352,3.7395,3.7444,3.7439,3.7497,3.7527,3.7585,3.7605,3.7651,3.763,3.7652,3.7658,3.7664,3.7671,3.7518,3.7659,3.7658,3.7658,3.7658,3.7657,0,3.7263,3.7281,3.7324,3.7369,3.7408,3.7388,3.7423,3.7456,3.7507,3.7537,3.7576,3.7637,3.7686,3.7703,3.7751,3.7785,3.7779,3.7798,3.7796,3.7801,3.7686,3.7668,3.7803,3.7803,3.7803,3.7803,3.7803,3.7803,3.7337,3.7406,3.7411,3.7492,3.751,3.7567,3.7589,3.7618,3.7641,3.7711,3.7751,3.7763,3.7788,3.7839,3.7883,3.7887,3.7907,3.793,3.7931,3.7823,3.7809,3.7795,3.7779,3.7934,3.7934,3.8043,3.8044,3.8045]},{"header":{"parameterUnit":"m.s-1","parameterCategory":1,"la1":30.2991,"la2":30.254,"lo1":-89.0895,"lo2":-89.0444,"dy":0.0017,"dx":0.0017,"nx":28,"ny":28,"refTime":"2025-02-01T03:00:00:Z","depth":0,"parameterNumber":3,"parameterNumberName":"V-component_of_WINDS"},"data":[0,0,0,0,0,0,0,0,0,0,0,0,0,0,0,0,0,0,0,0,0,0,0,0,0,0,0,0,0,0,0,0,0,0,0,0,0,0,0,0,0,0,0,0,0,0,0,0,0,0,0,0,0,0,0,0,0,0,-1.0004,-1.0004,0,-1.0056,-1.0057,-1.0057,-1.0086,-1.0087,-1.0087,-1.0087,-1.0139,-1.0141,-1.0142,0,0,0,0,0,0,0,0,0,0,0,0,0,-0.9928,-0.9929,-1.0003,-1.0004,-1.0005,-1.0056,-1.0057,-1.0058,-1.0086,-1.0087,-1.0087,-1.0087,-1.0139,-1.0141,-1.0142,0,0,0,0,0,0,0,0,0,0,0,0,0,-0.9969,-0.993,-1.0003,-1.0025,-1.0028,-1.0056,-1.0057,-1.0058,-1.0086,-1.0087,-1.0087,-1.0087,-1.0138,-1.014,-1.0142,-1.0152,0,0,-1.0148,-1.0149,0,0,0,0,0,0,0,0,-0.9966,-0.9971,-1.0022,-1.0024,-1.0027,-1.0065,-1.005,-1.0089,-1.0086,-1.0064,-1.0087,-1.0087,-1.0114,-1.0118,-1.0128,-1.0155,-1.0157,-1.0149,-1.015,-1.0151,-1.0151,0,0,0,0,0,0,0,-0.9963,-0.9969,-1.0024,-1.0022,-1.0025,-1.0033,-1.0039,-1.0057,-1.0088,-1.0066,-1.0068,-1.0074,-1.0116,-1.0126,-1.0129,-1.0158,-1.0149,-1.015,-1.0152,-1.0152,-1.0197,-1.0197,0,0,0,0,0,0,-0.9957,-0.9967,-1.0023,-1.0026,-0.9996,-1.0034,-1.0041,-1.0053,-1.0088,-1.0093,-1.0074,-1.0075,-1.0123,-1.0127,-1.0131,-1.0146,-1.0151,-1.0153,-1.0154,-1.0197,-1.0197,-1.0197,0,0,0,0,0,0,-0.9955,-0.9962,-1.0021,-0.9997,-1.0005,-1.0035,-1.0048,-1.0054,-1.0064,-1.0094,-1.0099,-1.0079,-1.0123,-1.0129,-1.0147,-1.0148,-1.0153,-1.0155,-1.0197,-1.0197,-1.0197,-1.0175,0,0,0,0,0,0,-0.9953,-0.9961,-0.9965,-0.9997,-1.0006,-1.0035,-1.0048,-1.0054,-1.0067,-1.0069,-1.01,-1.0105,-1.0123,-1.0144,-1.0149,-1.0151,-1.0157,-1.0197,-1.0197,-1.0197,-1.0176,-1.0174,-1.0173,0,0,0,0,0,-0.995,-0.9956,-0.9965,-0.9972,-1.0012,-1.0035,-1.0041,-1.0062,-1.0067,-1.0072,-1.0091,-1.0104,-1.0148,-1.0146,-1.0152,-1.0154,-1.0197,-1.0197,-1.0197,-1.0177,-1.0175,-1.0173,0,0,0,0,0,0,-0.9923,-0.9961,-0.9971,-0.9987,-1.0008,-1.004,-1.0046,-1.0059,-1.0079,-1.008,-1.0106,-1.0112,-1.0129,-1.0143,-1.0141,-1.0167,-1.0174,-1.0175,-1.0156,-1.0155,-1.0153,-1.0149,-1.0158,0,0,0,0,0,-0.9919,-0.9935,-0.9967,-0.9979,-0.9989,-1.0016,-1.0027,-1.0042,-1.0064,-1.0073,-1.0094,-1.0115,-1.0133,-1.0145,-1.0163,-1.0178,-1.0186,-1.0183,-1.0182,-1.0181,-1.0181,-1.0191,-1.0191,-1.0197,-1.0197,-1.0197,0,0,-0.9911,-0.9933,-0.9942,-0.9974,-0.9992,-1.0008,-1.0023,-1.0039,-1.0052,-1.0075,-1.0094,-1.0111,-1.0136,-1.0153,-1.0161,-1.0166,-1.0181,-1.0181,-1.0179,-1.0181,-1.0191,-1.0191,-1.019,-1.0197,-1.0197,-1.0197,0,0,-0.9904,-0.9922,-0.9935,-0.9952,-0.9979,-0.9998,-1.0001,-1.0031,-1.0043,-1.0063,-1.0081,-1.0097,-1.0128,-1.0145,-1.0158,-1.016,-1.0173,-1.0165,-1.0158,-1.0167,-1.0167,-1.0167,-1.0168,-1.0168,-1.0166,-1.0166,-1.0166,0,-0.989,-0.9915,-0.9939,-0.9955,-0.9969,-0.9992,-1.0004,-1.002,-1.0052,-1.0061,-1.0066,-1.0106,-1.0125,-1.0147,-1.0148,-1.0157,-1.0162,-1.0162,-1.0165,-1.0165,-1.0165,-1.0167,-1.0167,-1.0165,-1.0165,-1.0165,-1.0165,0,-0.9897,-0.9915,-0.9921,-0.9952,-0.9967,-0.9981,-1.0007,-1.0019,-1.0033,-1.0051,-1.0071,-1.0095,-1.0119,-1.0125,-1.0139,-1.015,-1.0152,-1.016,-1.0168,-1.0163,-1.0165,-1.0166,-1.0163,-1.0164,-1.0164,-1.0164,0,0,-0.9874,-0.9919,-0.9921,-0.9935,-0.9968,-0.9982,-0.9997,-1.0022,-1.0032,-1.0053,-1.0067,-1.0094,-1.0103,-1.0117,-1.0133,-1.0142,-1.0143,-1.015,-1.0151,-1.0148,-1.0157,-1.015,-1.0151,-1.0151,-1.0152,-1.0152,-1.0155,0,-0.9872,-0.9901,-0.9924,-0.9944,-0.9961,-0.9984,-0.9998,-1.0019,-1.0037,-1.0054,-1.0073,-1.0092,-1.0101,-1.0111,-1.012,-1.014,-1.0145,-1.014,-1.0165,-1.0165,-1.0158,-1.0152,-1.0144,-1.0146,-1.0156,-1.0156,-1.0156,0,-0.9873,-0.9895,-0.9918,-0.9949,-0.9957,-0.9969,-0.9994,-1.001,-1.0035,-1.0047,-1.0065,-1.0081,-1.0099,-1.0105,-1.0131,-1.0127,-1.0139,-1.0151,-1.0151,-1.0154,-1.016,-1.0155,-1.0147,-1.0148,-1.0157,-1.0157,-1.0157,0,-0.9855,-0.9889,-0.9908,-0.992,-0.9957,-0.9965,-0.9981,-1.0006,-1.002,-1.0042,-1.0051,-1.0074,-1.0087,-1.0105,-1.0128,-1.013,-1.0151,-1.0159,-1.0162,-1.0161,-1.0165,-1.0164,-1.016,-1.0172,-1.0172,-1.0172,-1.0172,0,-0.985,-0.9863,-0.99,-0.9911,-0.9927,-0.9953,-0.9968,-0.9985,-1.0008,-1.0024,-1.0045,-1.0059,-1.0088,-1.0105,-1.0123,-1.0142,-1.0148,-1.0158,-1.0163,-1.0156,-1.0155,-1.0164,-1.0165,-1.0172,-1.0172,-1.0172,-1.0172,0,-0.9832,-0.9857,-0.9878,-0.9912,-0.9921,-0.9931,-0.9961,-0.9973,-0.9992,-1.0011,-1.0017,-1.0047,-1.0069,-1.0094,-1.0124,-1.0136,-1.0154,-1.016,-1.0145,-1.0148,-1.015,-1.015,-1.0151,-1.0153,-1.0163,-1.0163,-1.0163,0,-0.9827,-0.9838,-0.9874,-0.9886,-0.9902,-0.9921,-0.9935,-0.9961,-0.9976,-1.0006,-1.0015,-1.0038,-1.0059,-1.0093,-1.0117,-1.0141,-1.0148,-1.0147,-1.0152,-1.0146,-1.0149,-1.0148,-1.015,-1.0146,-1.0146,-1.0145,-1.0145,0,-0.9817,-0.9829,-0.985,-0.9875,-0.9891,-0.9912,-0.9934,-0.9942,-0.9973,-0.9988,-1.0012,-1.0027,-1.0059,-1.0083,-1.0109,-1.0126,-1.0141,-1.0144,-1.0146,-1.0139,-1.0131,-1.0136,-1.0142,-1.0143,-1.0144,-1.0144,-1.0144,-1.0144,-0.9806,-0.9817,-0.9844,-0.9867,-0.9886,-0.9906,-0.9919,-0.9941,-0.996,-0.9988,-1.0003,-1.0026,-1.0052,-1.009,-1.0106,-1.0125,-1.013,-1.0132,-1.0133,-1.0133,-1.0132,-1.0128,-1.013,-1.013,-1.013,-1.013,-1.013,0,-0.9797,-0.9816,-0.9837,-0.9867,-0.9884,-0.9898,-0.9923,-0.9936,-0.9957,-0.998,-1.0,-1.0028,-1.0051,-1.0078,-1.0103,-1.0113,-1.0121,-1.0119,-1.0118,-1.0122,-1.0126,-1.0122,-1.0112,-1.0112,-1.0112,-1.0112,-1.0112,-1.0112,-0.9795,-0.9815,-0.983,-0.986,-0.9879,-0.9903,-0.9916,-0.9935,-0.9954,-0.9984,-1.0003,-1.0021,-1.0046,-1.0074,-1.0096,-1.0103,-1.0112,-1.0108,-1.0117,-1.012,-1.0122,-1.0123,-1.0119,-1.0109,-1.0109,-1.0112,-1.0112,-1.0112]}]]